EW1979 Weather Reports


time (UTC)temp
C
wind
direction
speed
KPH
gust
KPH
rain 1hr
cm
rain 24hr
cm
rain mn
cm
humidity
%
barometer
mb
20240614121526 23 229 0.0 0.0 0.00 0.00 0.00 100 1011.7
20240614120021 23 150 0.0 0.0 0.00 0.00 0.00 100 1011.5
20240614114522 23 150 0.0 0.0 0.00 0.00 0.00 100 1011.3
20240614113013 23 150 0.0 0.0 0.00 0.00 0.00 100 1011.1
20240614111514 23 150 0.0 0.0 0.00 0.00 0.00 100 1010.8
20240614110003 23 148 0.0 0.0 0.00 0.00 0.00 100 1010.7
20240614104600 23 148 0.0 0.0 0.00 0.00 0.00 100 1010.4
20240614103057 23 148 0.0 0.0 0.00 0.00 0.00 100 1010.4
20240614101555 23 148 0.0 0.0 0.00 0.00 0.00 100 1010.2
20240614100046 23 144 0.0 0.0 0.00 0.00 0.00 100 1010.2
20240614094549 23 143 0.0 0.0 0.00 0.00 0.00 100 1010.2
20240614093049 23 139 0.0 0.0 0.00 0.00 0.00 100 1010.2
20240614091538 23 135 0.0 0.0 0.00 0.00 0.00 100 1010.2
20240614090029 23 130 0.0 0.0 0.00 0.00 0.00 100 1010.2
20240614084525 23 130 0.0 0.0 0.00 0.00 0.00 100 1010.3
20240614083020 23 130 0.0 0.0 0.00 0.00 0.00 100 1010.3
20240614081517 23 130 0.0 0.0 0.00 0.00 0.00 5 1010.2
20240614080023 23 117 0.0 0.0 0.00 0.00 0.00 11 1010.2
20240614074511 23 106 0.0 0.0 0.00 0.00 0.00 18 1010.1
20240614073013 23 106 0.0 0.0 0.00 0.00 0.00 22 1010.2
20240614071508 24 106 0.0 0.0 0.00 0.00 0.00 25 1010.1
20240614070006 24 96 0.0 0.0 0.00 0.00 0.00 31 1010.2
20240614064503 24 90 0.0 0.0 0.00 0.00 0.00 36 1010.1
20240614063001 24 90 0.0 0.0 0.00 0.00 0.00 41 1010.1
20240614061600 24 90 0.0 0.0 0.00 0.00 0.00 46 1010.1
20240614060102 25 90 0.0 0.0 0.00 0.00 0.00 51 1010.1
20240614054558 25 90 0.0 0.0 0.00 0.00 0.00 54 1010.2
20240614053104 25 89 0.0 0.0 0.00 0.00 0.00 58 1010.2
20240614051550 25 88 0.0 0.0 0.00 0.00 0.00 60 1010.0
20240614050048 26 88 0.0 0.0 0.00 0.00 0.00 62 1010.0
20240614044544 26 86 0.0 0.0 0.00 0.00 0.00 62 1009.9
20240614043040 26 102 0.0 0.0 0.00 0.00 0.00 63 1009.7
20240614041541 26 96 0.0 0.0 0.00 0.00 0.00 64 1009.6
20240614040031 26 112 0.0 0.0 0.00 0.00 0.00 64 1009.5
20240614034526 26 84 0.0 0.0 0.00 0.00 0.00 64 1009.4
20240614033022 26 84 0.0 0.0 0.00 0.00 0.00 64 1009.3
20240614031544 27 84 0.0 0.0 0.00 0.00 0.00 64 1009.1
20240614030014 27 96 0.0 0.0 0.00 0.00 0.00 65 1009.3
20240614024509 27 97 0.0 0.0 0.00 0.00 0.00 64 1008.9
20240614023005 27 98 0.0 0.0 0.00 0.00 0.00 64 1008.7
20240614021627 27 98 0.0 0.0 0.00 0.00 0.00 64 1008.6
20240614020056 28 94 0.0 0.0 0.00 0.00 0.00 63 1008.5
20240614014552 28 96 0.0 0.0 0.00 0.00 0.00 62 1008.5
20240614013049 29 95 0.0 0.0 0.00 0.00 0.00 61 1008.4
20240614011547 30 95 0.0 0.0 0.00 0.00 0.00 59 1008.3
20240614010039 30 98 0.0 0.0 0.00 0.00 0.00 56 1008.2
20240614004539 31 88 0.0 0.0 0.00 0.00 0.00 56 1008.2
20240614003030 31 88 0.0 0.0 0.00 0.00 0.00 55 1008.0
20240614001537 31 109 0.0 0.0 0.00 0.00 0.00 53 1008.0
20240614000022 31 134 0.0 0.0 0.00 0.00 0.00 53 1007.9
20240613234518 32 105 0.0 0.0 0.00 0.00 0.00 53 1007.8
20240613233017 32 154 0.0 0.0 0.00 0.00 0.00 53 1007.8
20240613231513 32 94 0.0 0.0 0.00 0.00 0.00 53 1007.9
20240613230005 32 95 0.0 0.0 0.00 0.00 0.00 53 1007.8
20240613224616 32 101 0.0 0.0 0.00 0.00 0.00 51 1007.9
20240613223135 32 115 0.0 0.0 0.00 0.00 0.00 52 1008.0
20240613221555 32 126 0.0 0.0 0.00 0.00 0.00 52 1008.1
20240613220103 32 111 0.0 0.0 0.00 0.00 0.00 52 1008.2
20240613214543 32 119 0.0 0.0 0.00 0.00 0.00 54 1008.3
20240613213039 32 128 0.0 0.0 0.00 0.00 0.00 51 1008.5
20240613211537 32 124 0.0 0.0 0.00 0.00 0.00 51 1008.8
20240613210032 32 123 0.0 0.0 0.00 0.00 0.00 52 1008.9
20240613204532 32 146 0.0 0.0 0.00 0.00 0.00 52 1009.1
20240613203021 31 109 0.0 0.0 0.00 0.00 0.00 55 1009.3
20240613201517 31 119 0.0 0.0 0.00 0.00 0.00 55 1009.6
20240613200015 31 203 0.0 0.0 0.00 0.00 0.00 52 1009.7
20240613194510 31 148 0.0 0.0 0.00 0.00 0.00 54 1009.9
20240613193003 31 165 0.0 0.0 0.00 0.00 0.00 54 1010.0
20240613191604 31 154 0.0 0.0 0.00 0.00 0.00 53 1010.1
20240613190055 31 154 0.0 0.0 0.00 0.00 0.00 54 1010.2
20240613184614 30 188 0.0 0.0 0.00 0.00 0.00 54 1010.5
20240613183055 30 189 0.0 0.0 0.00 0.00 0.00 54 1010.8
20240613181542 30 190 0.0 0.0 0.00 0.00 0.00 54 1011.0
20240613180038 28 190 0.0 0.0 0.00 0.00 0.00 54 1011.2
20240613174610 29 196 0.0 0.0 0.00 0.00 0.00 53 1011.3
20240613173034 29 196 0.0 0.0 0.00 0.00 0.00 52 1011.2
20240613171551 28 190 0.0 0.0 0.00 0.00 0.00 51 1011.4
20240613170021 28 194 0.0 0.0 0.00 0.00 0.00 49 1011.4
20240613164516 28 195 0.0 0.0 0.00 0.00 0.00 47 1011.4
20240613163019 27 181 0.0 0.0 0.00 0.00 0.00 44 1011.7
20240613161507 27 183 0.0 0.0 0.00 0.00 0.00 45 1011.6
20240613160008 27 170 0.0 0.0 0.00 0.00 0.00 45 1011.5
20240613154602 27 186 0.0 0.0 0.00 0.00 0.00 39 1011.6
20240613153108 26 183 0.0 0.0 0.00 0.00 0.00 33 1011.9
20240613151549 25 190 0.0 0.0 0.00 0.00 0.00 30 1012.0
20240613150057 25 173 0.0 0.0 0.00 0.00 0.00 25 1012.2
20240613144547 25 200 0.0 0.0 0.00 0.00 0.00 18 1012.1
20240613143039 25 199 0.0 0.0 0.00 0.00 0.00 18 1012.0
20240613141533 25 184 0.0 0.0 0.00 0.00 0.00 11 1011.9
20240613140028 25 160 0.0 0.0 0.00 0.00 0.00 100 1012.0
20240613134536 24 171 0.0 0.0 0.00 0.00 0.00 100 1011.7
20240613133019 24 159 0.0 0.0 0.00 0.00 0.00 100 1011.7
20240613131516 23 184 0.0 0.0 0.00 0.00 0.00 100 1011.5
20240613130013 23 177 0.0 0.0 0.00 0.00 0.00 100 1011.4
20240613124512 23 177 0.0 0.0 0.00 0.00 0.00 100 1011.3
20240613123001 23 190 0.0 0.0 0.00 0.00 0.00 100 1011.0